owner,sensor,date,latitude,longitude,vertical_datum,direction_of_sea_water_velocity,sea_water_speed,upward_sea_water_velocity,qcFlag 
TABS,ioos:station:wmo:42046:1,2007-10-01T00:00:00Z,27.8903,-94.0367,2.0,355.1084497,4.456231592,-99999.0,'11133222,11111222,99999999' 
TABS,ioos:station:wmo:42046:1,2007-10-01T00:30:00Z,27.8903,-94.0367,2.0,328.6843034,1.67385782,-99999.0,'11133222,11111222,99999999' 
TABS,ioos:station:wmo:42046:1,2007-10-01T01:00:00Z,27.8903,-94.0367,2.0,226.3319011,0.91241438,-99999.0,'11133222,11111222,99999999' 
TABS,ioos:station:wmo:42046:1,2007-10-01T01:30:00Z,27.8903,-94.0367,2.0,223.9766565,3.96042927,-99999.0,'11133222,11111222,99999999' 
TABS,ioos:station:wmo:42046:1,2007-10-01T02:00:00Z,27.8903,-94.0367,2.0,199.3649893,4.674462536,-99999.0,'11133222,11111222,99999999' 
TABS,ioos:station:wmo:42046:1,2007-10-01T02:30:00Z,27.8903,-94.0367,2.0,204.2885349,6.418107198,-99999.0,'11133222,11111222,99999999' 
TABS,ioos:station:wmo:42046:1,2007-10-01T03:00:00Z,27.8903,-94.0367,2.0,220.8910734,8.783626814,-99999.0,'11133222,11111222,99999999' 
TABS,ioos:station:wmo:42046:1,2007-10-01T03:30:00Z,27.8903,-94.0367,2.0,216.6894266,8.26804088,-99999.0,'11133222,11111222,99999999' 
TABS,ioos:station:wmo:42046:1,2007-10-01T04:00:00Z,27.8903,-94.0367,2.0,216.1955656,8.500588215,-99999.0,'11133222,11111222,99999999' 
TABS,ioos:station:wmo:42046:1,2007-10-01T04:30:00Z,27.8903,-94.0367,2.0,231.209962,8.955026521,-99999.0,'11133222,11111222,99999999' 
TABS,ioos:station:wmo:42046:1,2007-10-01T05:00:00Z,27.8903,-94.0367,2.0,240.9641989,5.810232353,-99999.0,'11133222,11111222,99999999' 
TABS,ioos:station:wmo:42046:1,2007-10-01T05:30:00Z,27.8903,-94.0367,2.0,235.2693668,8.249751511,-99999.0,'11133222,11111222,99999999' 
TABS,ioos:station:wmo:42046:1,2007-10-01T06:00:00Z,27.8903,-94.0367,2.0,238.4965708,13.30030451,-99999.0,'11111222,11111222,99999999' 
TABS,ioos:station:wmo:42046:1,2007-10-01T06:30:00Z,27.8903,-94.0367,2.0,244.7542209,7.5733348,-99999.0,'11133222,11111222,99999999' 
TABS,ioos:station:wmo:42046:1,2007-10-01T07:00:00Z,27.8903,-94.0367,2.0,246.8139211,5.841823345,-99999.0,'11133222,11111222,99999999' 
TABS,ioos:station:wmo:42046:1,2007-10-01T07:30:00Z,27.8903,-94.0367,2.0,264.6955582,7.572423654,-99999.0,'11133222,11111222,99999999' 
TABS,ioos:station:wmo:42046:1,2007-10-01T08:00:00Z,27.8903,-94.0367,2.0,254.9289262,19.34536895,-99999.0,'11111222,11111222,99999999' 
TABS,ioos:station:wmo:42046:1,2007-10-01T08:30:00Z,27.8903,-94.0367,2.0,268.3952,13.21518066,-99999.0,'11111222,11111222,99999999' 
TABS,ioos:station:wmo:42046:1,2007-10-01T09:00:00Z,27.8903,-94.0367,2.0,269.4616076,10.65046947,-99999.0,'11111222,11111222,99999999' 
TABS,ioos:station:wmo:42046:1,2007-10-01T09:30:00Z,27.8903,-94.0367,2.0,283.2633776,11.68157952,-99999.0,'11111222,11111222,99999999' 
TABS,ioos:station:wmo:42046:1,2007-10-01T10:00:00Z,27.8903,-94.0367,2.0,280.693637,11.47934232,-99999.0,'11111222,11111222,99999999' 
TABS,ioos:station:wmo:42046:1,2007-10-01T10:30:00Z,27.8903,-94.0367,2.0,282.5208313,14.85322861,-99999.0,'11111222,11111222,99999999' 
TABS,ioos:station:wmo:42046:1,2007-10-01T11:00:00Z,27.8903,-94.0367,2.0,283.7976847,13.37595604,-99999.0,'11111222,11111222,99999999' 
TABS,ioos:station:wmo:42046:1,2007-10-01T11:30:00Z,27.8903,-94.0367,2.0,284.0848034,14.42359872,-99999.0,'11111222,11111222,99999999' 
TABS,ioos:station:wmo:42046:1,2007-10-01T12:00:00Z,27.8903,-94.0367,2.0,288.8952429,13.0005423,-99999.0,'11111222,11111222,99999999' 
TABS,ioos:station:wmo:42046:1,2007-10-01T12:30:00Z,27.8903,-94.0367,2.0,292.3542614,14.25092278,-99999.0,'11111222,11111222,99999999' 
TABS,ioos:station:wmo:42046:1,2007-10-01T13:00:00Z,27.8903,-94.0367,2.0,294.2850328,11.01464934,-99999.0,'11111222,11111222,99999999' 
TABS,ioos:station:wmo:42046:1,2007-10-01T13:30:00Z,27.8903,-94.0367,2.0,303.738463,9.920816499,-99999.0,'11133222,11111222,99999999' 
TABS,ioos:station:wmo:42046:1,2007-10-01T14:00:00Z,27.8903,-94.0367,2.0,313.4028432,10.65316854,-99999.0,'11111222,11111222,99999999' 
TABS,ioos:station:wmo:42046:1,2007-10-01T14:30:00Z,27.8903,-94.0367,2.0,319.9078532,8.18293957,-99999.0,'11133222,11111222,99999999' 
TABS,ioos:station:wmo:42046:1,2007-10-01T15:00:00Z,27.8903,-94.0367,2.0,309.090925,8.516395951,-99999.0,'11133222,11111222,99999999' 
TABS,ioos:station:wmo:42046:1,2007-10-01T15:30:00Z,27.8903,-94.0367,2.0,303.608588,7.76858417,-99999.0,'11133222,11111222,99999999' 
TABS,ioos:station:wmo:42046:1,2007-10-01T16:00:00Z,27.8903,-94.0367,2.0,310.5441165,8.645767751,-99999.0,'11133222,11111222,99999999' 
TABS,ioos:station:wmo:42046:1,2007-10-01T16:30:00Z,27.8903,-94.0367,2.0,328.528925,9.098356995,-99999.0,'11133222,11111222,99999999' 
TABS,ioos:station:wmo:42046:1,2007-10-01T17:00:00Z,27.8903,-94.0367,2.0,320.0835365,9.895989086,-99999.0,'11133222,11111222,99999999' 
TABS,ioos:station:wmo:42046:1,2007-10-01T17:30:00Z,27.8903,-94.0367,2.0,339.2789824,10.14633924,-99999.0,'11111222,11111222,99999999' 
TABS,ioos:station:wmo:42046:1,2007-10-01T18:00:00Z,27.8903,-94.0367,2.0,336.7325601,13.06237344,-99999.0,'11111222,11111222,99999999' 
TABS,ioos:station:wmo:42046:1,2007-10-01T18:30:00Z,27.8903,-94.0367,2.0,332.2499634,12.97196978,-99999.0,'11111222,11111222,99999999' 
TABS,ioos:station:wmo:42046:1,2007-10-01T19:00:00Z,27.8903,-94.0367,2.0,340.5803763,11.03797989,-99999.0,'11111222,11111222,99999999' 
TABS,ioos:station:wmo:42046:1,2007-10-01T19:30:00Z,27.8903,-94.0367,2.0,335.8211599,11.27956116,-99999.0,'11111222,11111222,99999999' 
TABS,ioos:station:wmo:42046:1,2007-10-01T20:00:00Z,27.8903,-94.0367,2.0,326.9444649,10.52330746,-99999.0,'11111222,11111222,99999999' 
TABS,ioos:station:wmo:42046:1,2007-10-01T20:30:00Z,27.8903,-94.0367,2.0,347.9088754,11.7915987,-99999.0,'11111222,11111222,99999999' 
TABS,ioos:station:wmo:42046:1,2007-10-01T21:00:00Z,27.8903,-94.0367,2.0,22.11744202,14.82057016,-99999.0,'11111222,11111222,99999999' 
TABS,ioos:station:wmo:42046:1,2007-10-01T21:30:00Z,27.8903,-94.0367,2.0,24.76571402,12.5326334,-99999.0,'11111222,11111222,99999999' 
TABS,ioos:station:wmo:42046:1,2007-10-01T22:00:00Z,27.8903,-94.0367,2.0,27.8883691,9.877109901,-99999.0,'11133222,11111222,99999999' 
TABS,ioos:station:wmo:42046:1,2007-10-01T22:30:00Z,27.8903,-94.0367,2.0,32.96953727,7.056344663,-99999.0,'11133222,11111222,99999999' 
TABS,ioos:station:wmo:42046:1,2007-10-01T23:00:00Z,27.8903,-94.0367,2.0,28.5266126,6.533146256,-99999.0,'11133222,11111222,99999999' 
TABS,ioos:station:wmo:42046:1,2007-10-01T23:30:00Z,27.8903,-94.0367,2.0,37.10113618,5.454044371,-99999.0,'11133222,11111222,99999999' 
TABS,ioos:station:wmo:42046:1,2007-10-02T00:00:00Z,27.8903,-94.0367,2.0,37.59470495,2.688215021,-99999.0,'11133222,11111222,99999999' 
TABS,ioos:station:wmo:42046:1,2007-10-02T00:30:00Z,27.8903,-94.0367,2.0,353.8658149,2.152324325,-99999.0,'11133222,11111222,99999999' 
TABS,ioos:station:wmo:42046:1,2007-10-02T01:00:00Z,27.8903,-94.0367,2.0,35.31134133,0.588217647,-99999.0,'11133222,11111222,99999999' 
TABS,ioos:station:wmo:42046:1,2007-10-02T01:30:00Z,27.8903,-94.0367,2.0,333.2041918,1.109098733,-99999.0,'11133222,11111222,99999999' 
TABS,ioos:station:wmo:42046:1,2007-10-02T02:00:00Z,27.8903,-94.0367,2.0,284.8458383,1.717323499,-99999.0,'11133222,11111222,99999999' 
TABS,ioos:station:wmo:42046:1,2007-10-02T02:30:00Z,27.8903,-94.0367,2.0,323.9940871,1.990226118,-99999.0,'11133222,11111222,99999999' 
TABS,ioos:station:wmo:42046:1,2007-10-02T03:00:00Z,27.8903,-94.0367,2.0,290.9171758,2.044749373,-99999.0,'11133222,11111222,99999999' 
TABS,ioos:station:wmo:42046:1,2007-10-02T03:30:00Z,27.8903,-94.0367,2.0,266.978864,3.795273376,-99999.0,'11133222,11111222,99999999' 
TABS,ioos:station:wmo:42046:1,2007-10-02T04:00:00Z,27.8903,-94.0367,2.0,276.8281493,4.542213117,-99999.0,'11133222,11111222,99999999' 
TABS,ioos:station:wmo:42046:1,2007-10-02T04:30:00Z,27.8903,-94.0367,2.0,272.6634155,3.874183785,-99999.0,'11133222,11111222,99999999' 
TABS,ioos:station:wmo:42046:1,2007-10-02T05:00:00Z,27.8903,-94.0367,2.0,277.9230857,5.07847418,-99999.0,'11133222,11111222,99999999' 
TABS,ioos:station:wmo:42046:1,2007-10-02T05:30:00Z,27.8903,-94.0367,2.0,290.4726526,7.205060721,-99999.0,'11133222,11111222,99999999' 
TABS,ioos:station:wmo:42046:1,2007-10-02T06:00:00Z,27.8903,-94.0367,2.0,271.7000897,6.742966706,-99999.0,'11133222,11111222,99999999' 
TABS,ioos:station:wmo:42046:1,2007-10-02T06:30:00Z,27.8903,-94.0367,2.0,283.3998373,7.637918565,-99999.0,'11133222,11111222,99999999' 
TABS,ioos:station:wmo:42046:1,2007-10-02T07:00:00Z,27.8903,-94.0367,2.0,282.7783792,7.731474633,-99999.0,'11133222,11111222,99999999' 
TABS,ioos:station:wmo:42046:1,2007-10-02T07:30:00Z,27.8903,-94.0367,2.0,294.5289877,11.20083033,-99999.0,'11111222,11111222,99999999' 
TABS,ioos:station:wmo:42046:1,2007-10-02T08:00:00Z,27.8903,-94.0367,2.0,295.2794467,10.56137302,-99999.0,'11111222,11111222,99999999' 
TABS,ioos:station:wmo:42046:1,2007-10-02T08:30:00Z,27.8903,-94.0367,2.0,293.6777037,11.62890365,-99999.0,'11111222,11111222,99999999' 
TABS,ioos:station:wmo:42046:1,2007-10-02T09:00:00Z,27.8903,-94.0367,2.0,292.7979917,13.88468221,-99999.0,'11111222,11111222,99999999' 
TABS,ioos:station:wmo:42046:1,2007-10-02T09:30:00Z,27.8903,-94.0367,2.0,290.2144652,13.13927319,-99999.0,'11111222,11111222,99999999' 
TABS,ioos:station:wmo:42046:1,2007-10-02T10:00:00Z,27.8903,-94.0367,2.0,298.7046136,14.13733002,-99999.0,'11111222,11111222,99999999' 
TABS,ioos:station:wmo:42046:1,2007-10-02T10:30:00Z,27.8903,-94.0367,2.0,289.0924433,14.61384617,-99999.0,'11111222,11111222,99999999' 
TABS,ioos:station:wmo:42046:1,2007-10-02T11:00:00Z,27.8903,-94.0367,2.0,297.720898,12.64082671,-99999.0,'11111222,11111222,99999999' 
TABS,ioos:station:wmo:42046:1,2007-10-02T11:30:00Z,27.8903,-94.0367,2.0,292.9486169,13.82407321,-99999.0,'11111222,11111222,99999999' 
TABS,ioos:station:wmo:42046:1,2007-10-02T12:00:00Z,27.8903,-94.0367,2.0,292.2723548,14.69642474,-99999.0,'11111222,11111222,99999999' 
TABS,ioos:station:wmo:42046:1,2007-10-02T12:30:00Z,27.8903,-94.0367,2.0,297.9437143,13.57238741,-99999.0,'11111222,11111222,99999999' 
TABS,ioos:station:wmo:42046:1,2007-10-02T13:00:00Z,27.8903,-94.0367,2.0,307.6037747,12.02898583,-99999.0,'11111222,11111222,99999999' 
TABS,ioos:station:wmo:42046:1,2007-10-02T13:30:00Z,27.8903,-94.0367,2.0,306.4470545,12.45633975,-99999.0,'11111222,11111222,99999999' 
TABS,ioos:station:wmo:42046:1,2007-10-02T14:00:00Z,27.8903,-94.0367,2.0,313.2728216,11.96261259,-99999.0,'11111222,11111222,99999999' 
TABS,ioos:station:wmo:42046:1,2007-10-02T14:30:00Z,27.8903,-94.0367,2.0,322.8730368,10.6861078,-99999.0,'11111222,11111222,99999999' 
TABS,ioos:station:wmo:42046:1,2007-10-02T15:00:00Z,27.8903,-94.0367,2.0,320.6723022,10.44561152,-99999.0,'11111222,11111222,99999999' 
TABS,ioos:station:wmo:42046:1,2007-10-02T15:30:00Z,27.8903,-94.0367,2.0,322.0152961,12.33233555,-99999.0,'11111222,11111222,99999999' 
TABS,ioos:station:wmo:42046:1,2007-10-02T16:00:00Z,27.8903,-94.0367,2.0,336.5947763,19.63569199,-99999.0,'11111222,11111222,99999999' 
TABS,ioos:station:wmo:42046:1,2007-10-02T16:30:00Z,27.8903,-94.0367,2.0,349.7364782,22.44923384,-99999.0,'11111222,11111222,99999999' 
TABS,ioos:station:wmo:42046:1,2007-10-02T17:00:00Z,27.8903,-94.0367,2.0,357.6634576,21.33774355,-99999.0,'11111222,11111222,99999999' 
TABS,ioos:station:wmo:42046:1,2007-10-02T17:30:00Z,27.8903,-94.0367,2.0,356.8689384,21.6022522,-99999.0,'11111222,11111222,99999999' 
TABS,ioos:station:wmo:42046:1,2007-10-02T18:00:00Z,27.8903,-94.0367,2.0,358.2963308,20.17892217,-99999.0,'11111222,11111222,99999999' 
TABS,ioos:station:wmo:42046:1,2007-10-02T18:30:00Z,27.8903,-94.0367,2.0,358.1049721,17.83975897,-99999.0,'11111222,11111222,99999999' 
TABS,ioos:station:wmo:42046:1,2007-10-02T19:00:00Z,27.8903,-94.0367,2.0,2.284296127,17.56395457,-99999.0,'11111222,11111222,99999999' 
TABS,ioos:station:wmo:42046:1,2007-10-02T19:30:00Z,27.8903,-94.0367,2.0,11.36998652,16.89149194,-99999.0,'11111222,11111222,99999999' 
TABS,ioos:station:wmo:42046:1,2007-10-02T20:00:00Z,27.8903,-94.0367,2.0,8.298151657,14.48160903,-99999.0,'11111222,11111222,99999999' 
TABS,ioos:station:wmo:42046:1,2007-10-02T20:30:00Z,27.8903,-94.0367,2.0,11.13004505,13.72819726,-99999.0,'11111222,11111222,99999999' 
TABS,ioos:station:wmo:42046:1,2007-10-02T21:00:00Z,27.8903,-94.0367,2.0,10.42999174,13.53361001,-99999.0,'11111222,11111222,99999999' 
TABS,ioos:station:wmo:42046:1,2007-10-02T21:30:00Z,27.8903,-94.0367,2.0,23.66842137,12.6544261,-99999.0,'11111222,11111222,99999999' 
TABS,ioos:station:wmo:42046:1,2007-10-02T22:00:00Z,27.8903,-94.0367,2.0,24.08984906,10.9759191,-99999.0,'11111222,11111222,99999999' 
TABS,ioos:station:wmo:42046:1,2007-10-02T22:30:00Z,27.8903,-94.0367,2.0,20.58568068,11.37640101,-99999.0,'11111222,11111222,99999999' 
TABS,ioos:station:wmo:42046:1,2007-10-02T23:00:00Z,27.8903,-94.0367,2.0,32.83530631,11.71102472,-99999.0,'11111222,11111222,99999999' 
TABS,ioos:station:wmo:42046:1,2007-10-02T23:30:00Z,27.8903,-94.0367,2.0,45.49976389,9.7301593,-99999.0,'11133222,11111222,99999999' 
TABS,ioos:station:wmo:42046:1,2007-10-03T00:00:00Z,27.8903,-94.0367,2.0,41.85259819,6.954279258,-99999.0,'11133222,11111222,99999999' 
TABS,ioos:station:wmo:42046:1,2007-10-03T00:30:00Z,27.8903,-94.0367,2.0,63.68376037,3.090275069,-99999.0,'11133222,11111222,99999999' 
TABS,ioos:station:wmo:42046:1,2007-10-03T01:00:00Z,27.8903,-94.0367,2.0,62.63758557,4.177379561,-99999.0,'11133222,11111222,99999999' 
TABS,ioos:station:wmo:42046:1,2007-10-03T01:30:00Z,27.8903,-94.0367,2.0,82.16304412,3.593563691,-99999.0,'11133222,11111222,99999999' 
TABS,ioos:station:wmo:42046:1,2007-10-03T02:00:00Z,27.8903,-94.0367,2.0,42.70950054,1.415344481,-99999.0,'11133222,11111222,99999999' 
TABS,ioos:station:wmo:42046:1,2007-10-03T02:30:00Z,27.8903,-94.0367,2.0,122.8112901,1.808535319,-99999.0,'11133222,11111222,99999999' 
TABS,ioos:station:wmo:42046:1,2007-10-03T03:00:00Z,27.8903,-94.0367,2.0,224.1693708,1.951819664,-99999.0,'11133222,11111222,99999999' 
TABS,ioos:station:wmo:42046:1,2007-10-03T03:30:00Z,27.8903,-94.0367,2.0,209.0543257,2.367994932,-99999.0,'11133222,11111222,99999999' 
TABS,ioos:station:wmo:42046:1,2007-10-03T04:00:00Z,27.8903,-94.0367,2.0,202.9774092,5.789343659,-99999.0,'11133222,11111222,99999999' 
TABS,ioos:station:wmo:42046:1,2007-10-03T04:30:00Z,27.8903,-94.0367,2.0,206.8946019,5.438207425,-99999.0,'11133222,11111222,99999999' 
TABS,ioos:station:wmo:42046:1,2007-10-03T05:00:00Z,27.8903,-94.0367,2.0,224.9996843,6.349818895,-99999.0,'11133222,11111222,99999999' 
TABS,ioos:station:wmo:42046:1,2007-10-03T05:30:00Z,27.8903,-94.0367,2.0,207.6639958,7.926083522,-99999.0,'11133222,11111222,99999999' 
TABS,ioos:station:wmo:42046:1,2007-10-03T06:00:00Z,27.8903,-94.0367,2.0,246.5875197,6.342144748,-99999.0,'11133222,11111222,99999999' 
TABS,ioos:station:wmo:42046:1,2007-10-03T06:30:00Z,27.8903,-94.0367,2.0,245.349052,8.03196738,-99999.0,'11133222,11111222,99999999' 
TABS,ioos:station:wmo:42046:1,2007-10-03T07:00:00Z,27.8903,-94.0367,2.0,263.3760602,7.369185844,-99999.0,'11133222,11111222,99999999' 
TABS,ioos:station:wmo:42046:1,2007-10-03T07:30:00Z,27.8903,-94.0367,2.0,267.7635748,9.227025523,-99999.0,'11133222,11111222,99999999' 
TABS,ioos:station:wmo:42046:1,2007-10-03T08:00:00Z,27.8903,-94.0367,2.0,275.5279481,10.27779159,-99999.0,'11111222,11111222,99999999' 
TABS,ioos:station:wmo:42046:1,2007-10-03T08:30:00Z,27.8903,-94.0367,2.0,280.4690115,10.95230569,-99999.0,'11111222,11111222,99999999' 
TABS,ioos:station:wmo:42046:1,2007-10-03T09:00:00Z,27.8903,-94.0367,2.0,290.9148909,11.0371962,-99999.0,'11111222,11111222,99999999' 
TABS,ioos:station:wmo:42046:1,2007-10-03T09:30:00Z,27.8903,-94.0367,2.0,287.6083029,11.17349095,-99999.0,'11111222,11111222,99999999' 
TABS,ioos:station:wmo:42046:1,2007-10-03T10:00:00Z,27.8903,-94.0367,2.0,297.2612743,11.04699054,-99999.0,'11111222,11111222,99999999' 
TABS,ioos:station:wmo:42046:1,2007-10-03T10:30:00Z,27.8903,-94.0367,2.0,306.7916067,10.20200961,-99999.0,'11111222,11111222,99999999' 
TABS,ioos:station:wmo:42046:1,2007-10-03T11:00:00Z,27.8903,-94.0367,2.0,309.0553203,13.5858787,-99999.0,'11111222,11111222,99999999' 
TABS,ioos:station:wmo:42046:1,2007-10-03T11:30:00Z,27.8903,-94.0367,2.0,313.5744198,13.07138095,-99999.0,'11111222,11111222,99999999' 
TABS,ioos:station:wmo:42046:1,2007-10-03T12:00:00Z,27.8903,-94.0367,2.0,320.8478875,14.71367391,-99999.0,'11111222,11111222,99999999' 
TABS,ioos:station:wmo:42046:1,2007-10-03T12:30:00Z,27.8903,-94.0367,2.0,319.1114566,14.69613895,-99999.0,'11111222,11111222,99999999' 
TABS,ioos:station:wmo:42046:1,2007-10-03T13:00:00Z,27.8903,-94.0367,2.0,326.9402963,14.62832868,-99999.0,'11111222,11111222,99999999' 
TABS,ioos:station:wmo:42046:1,2007-10-03T13:30:00Z,27.8903,-94.0367,2.0,324.973953,13.67707937,-99999.0,'11111222,11111222,99999999' 
TABS,ioos:station:wmo:42046:1,2007-10-03T14:00:00Z,27.8903,-94.0367,2.0,327.2458873,12.56840881,-99999.0,'11111222,11111222,99999999' 
TABS,ioos:station:wmo:42046:1,2007-10-03T14:30:00Z,27.8903,-94.0367,2.0,330.9685614,12.15758611,-99999.0,'11111222,11111222,99999999' 
TABS,ioos:station:wmo:42046:1,2007-10-03T15:00:00Z,27.8903,-94.0367,2.0,328.6977891,12.18347241,-99999.0,'11111222,11111222,99999999' 
TABS,ioos:station:wmo:42046:1,2007-10-03T15:30:00Z,27.8903,-94.0367,2.0,336.4880968,10.07660657,-99999.0,'11111222,11111222,99999999' 
TABS,ioos:station:wmo:42046:1,2007-10-03T16:00:00Z,27.8903,-94.0367,2.0,341.3399744,8.844959016,-99999.0,'11133222,11111222,99999999' 
TABS,ioos:station:wmo:42046:1,2007-10-03T16:30:00Z,27.8903,-94.0367,2.0,330.2635396,8.729564709,-99999.0,'11133222,11111222,99999999' 
TABS,ioos:station:wmo:42046:1,2007-10-03T17:00:00Z,27.8903,-94.0367,2.0,326.7746139,8.212606164,-99999.0,'11133222,11111222,99999999' 
TABS,ioos:station:wmo:42046:1,2007-10-03T17:30:00Z,27.8903,-94.0367,2.0,323.5521259,7.608206096,-99999.0,'11133222,11111222,99999999' 
TABS,ioos:station:wmo:42046:1,2007-10-03T18:00:00Z,27.8903,-94.0367,2.0,326.419634,8.714355972,-99999.0,'11133222,11111222,99999999' 
TABS,ioos:station:wmo:42046:1,2007-10-03T18:30:00Z,27.8903,-94.0367,2.0,322.0867176,9.113511947,-99999.0,'11133222,11111222,99999999' 
TABS,ioos:station:wmo:42046:1,2007-10-03T19:00:00Z,27.8903,-94.0367,2.0,340.7069248,8.232332598,-99999.0,'11133222,11111222,99999999' 
TABS,ioos:station:wmo:42046:1,2007-10-03T19:30:00Z,27.8903,-94.0367,2.0,337.2000572,8.30927193,-99999.0,'11133222,11111222,99999999' 
TABS,ioos:station:wmo:42046:1,2007-10-03T20:00:00Z,27.8903,-94.0367,2.0,335.5518627,10.65542585,-99999.0,'11111222,11111222,99999999' 
TABS,ioos:station:wmo:42046:1,2007-10-03T20:30:00Z,27.8903,-94.0367,2.0,334.7055608,8.472307832,-99999.0,'11133222,11111222,99999999' 
TABS,ioos:station:wmo:42046:1,2007-10-03T21:00:00Z,27.8903,-94.0367,2.0,331.2314523,8.373559578,-99999.0,'11133222,11111222,99999999' 
TABS,ioos:station:wmo:42046:1,2007-10-03T21:30:00Z,27.8903,-94.0367,2.0,343.34352,7.744985474,-99999.0,'11133222,11111222,99999999' 
TABS,ioos:station:wmo:42046:1,2007-10-03T22:00:00Z,27.8903,-94.0367,2.0,329.728815,8.232533025,-99999.0,'11133222,11111222,99999999' 
TABS,ioos:station:wmo:42046:1,2007-10-03T22:30:00Z,27.8903,-94.0367,2.0,338.5127259,8.135434838,-99999.0,'11133222,11111222,99999999' 
TABS,ioos:station:wmo:42046:1,2007-10-03T23:00:00Z,27.8903,-94.0367,2.0,351.8701271,8.414570696,-99999.0,'11133222,11111222,99999999' 
TABS,ioos:station:wmo:42046:1,2007-10-03T23:30:00Z,27.8903,-94.0367,2.0,335.1878098,6.433941249,-99999.0,'11133222,11111222,99999999' 
TABS,ioos:station:wmo:42046:1,2007-10-04T00:00:00Z,27.8903,-94.0367,2.0,339.3532679,5.89888125,-99999.0,'11133222,11111222,99999999' 
TABS,ioos:station:wmo:42046:1,2007-10-04T00:30:00Z,27.8903,-94.0367,2.0,336.2357431,5.58342189,-99999.0,'11133222,11111222,99999999' 
TABS,ioos:station:wmo:42046:1,2007-10-04T01:00:00Z,27.8903,-94.0367,2.0,340.9034558,6.296514909,-99999.0,'11133222,11111222,99999999' 
TABS,ioos:station:wmo:42046:1,2007-10-04T01:30:00Z,27.8903,-94.0367,2.0,335.6172494,6.225255015,-99999.0,'11133222,11111222,99999999' 
TABS,ioos:station:wmo:42046:1,2007-10-04T02:00:00Z,27.8903,-94.0367,2.0,333.5845581,5.147445969,-99999.0,'11133222,11111222,99999999' 
TABS,ioos:station:wmo:42046:1,2007-10-04T02:30:00Z,27.8903,-94.0367,2.0,332.1886286,4.522399805,-99999.0,'11133222,11111222,99999999' 
TABS,ioos:station:wmo:42046:1,2007-10-04T03:00:00Z,27.8903,-94.0367,2.0,313.2750648,4.697318384,-99999.0,'11133222,11111222,99999999' 
TABS,ioos:station:wmo:42046:1,2007-10-04T03:30:00Z,27.8903,-94.0367,2.0,284.2057279,4.930770731,-99999.0,'11133222,11111222,99999999' 
TABS,ioos:station:wmo:42046:1,2007-10-04T04:00:00Z,27.8903,-94.0367,2.0,299.5457956,4.988707247,-99999.0,'11133222,11111222,99999999' 
TABS,ioos:station:wmo:42046:1,2007-10-04T04:30:00Z,27.8903,-94.0367,2.0,287.7404,4.693165243,-99999.0,'11133222,11111222,99999999' 
TABS,ioos:station:wmo:42046:1,2007-10-04T05:00:00Z,27.8903,-94.0367,2.0,290.6123599,5.993680005,-99999.0,'11133222,11111222,99999999' 
TABS,ioos:station:wmo:42046:1,2007-10-04T05:30:00Z,27.8903,-94.0367,2.0,287.5012413,6.983237072,-99999.0,'11133222,11111222,99999999' 
TABS,ioos:station:wmo:42046:1,2007-10-04T06:00:00Z,27.8903,-94.0367,2.0,254.37718,7.798083098,-99999.0,'11133222,11111222,99999999' 
TABS,ioos:station:wmo:42046:1,2007-10-04T06:30:00Z,27.8903,-94.0367,2.0,272.2274627,7.205442388,-99999.0,'11133222,11111222,99999999' 
TABS,ioos:station:wmo:42046:1,2007-10-04T07:00:00Z,27.8903,-94.0367,2.0,261.6253396,9.956153876,-99999.0,'11133222,11111222,99999999' 
TABS,ioos:station:wmo:42046:1,2007-10-04T07:30:00Z,27.8903,-94.0367,2.0,265.3085863,9.17071971,-99999.0,'11133222,11111222,99999999' 
TABS,ioos:station:wmo:42046:1,2007-10-04T08:00:00Z,27.8903,-94.0367,2.0,261.1397847,11.88177175,-99999.0,'11111222,11111222,99999999' 
TABS,ioos:station:wmo:42046:1,2007-10-04T08:30:00Z,27.8903,-94.0367,2.0,263.3625362,8.738563955,-99999.0,'11133222,11111222,99999999' 
TABS,ioos:station:wmo:42046:1,2007-10-04T09:00:00Z,27.8903,-94.0367,2.0,273.2110514,9.284573227,-99999.0,'11133222,11111222,99999999' 
TABS,ioos:station:wmo:42046:1,2007-10-04T09:30:00Z,27.8903,-94.0367,2.0,274.542406,8.586966868,-99999.0,'11133222,11111222,99999999' 
TABS,ioos:station:wmo:42046:1,2007-10-04T10:00:00Z,27.8903,-94.0367,2.0,271.7377158,10.88500345,-99999.0,'11111222,11111222,99999999' 
TABS,ioos:station:wmo:42046:1,2007-10-04T10:30:00Z,27.8903,-94.0367,2.0,275.4663275,9.553439171,-99999.0,'11133222,11111222,99999999' 
TABS,ioos:station:wmo:42046:1,2007-10-04T11:00:00Z,27.8903,-94.0367,2.0,277.3458902,10.63729759,-99999.0,'11111222,11111222,99999999' 
TABS,ioos:station:wmo:42046:1,2007-10-04T11:30:00Z,27.8903,-94.0367,2.0,284.6252647,12.04010382,-99999.0,'11111222,11111222,99999999' 
TABS,ioos:station:wmo:42046:1,2007-10-04T12:00:00Z,27.8903,-94.0367,2.0,268.3679105,13.3454112,-99999.0,'11111222,11111222,99999999' 
TABS,ioos:station:wmo:42046:1,2007-10-04T12:30:00Z,27.8903,-94.0367,2.0,272.3214325,15.06235705,-99999.0,'11111222,11111222,99999999' 
TABS,ioos:station:wmo:42046:1,2007-10-04T13:00:00Z,27.8903,-94.0367,2.0,277.5242238,15.50347703,-99999.0,'11111222,11111222,99999999' 
TABS,ioos:station:wmo:42046:1,2007-10-04T13:30:00Z,27.8903,-94.0367,2.0,282.5602665,16.00296223,-99999.0,'11111222,11111222,99999999' 
TABS,ioos:station:wmo:42046:1,2007-10-04T14:00:00Z,27.8903,-94.0367,2.0,280.811152,16.20765251,-99999.0,'11111222,11111222,99999999' 
TABS,ioos:station:wmo:42046:1,2007-10-04T14:30:00Z,27.8903,-94.0367,2.0,286.8807116,16.66817626,-99999.0,'11111222,11111222,99999999' 
TABS,ioos:station:wmo:42046:1,2007-10-04T15:00:00Z,27.8903,-94.0367,2.0,278.9090133,15.82085333,-99999.0,'11111222,11111222,99999999' 
TABS,ioos:station:wmo:42046:1,2007-10-04T15:30:00Z,27.8903,-94.0367,2.0,278.858359,17.92377471,-99999.0,'11111222,11111222,99999999' 
TABS,ioos:station:wmo:42046:1,2007-10-04T16:00:00Z,27.8903,-94.0367,2.0,284.9318032,17.69755915,-99999.0,'11111222,11111222,99999999' 